Weather History for KWYS - September, 2013

Change the Weather History Date:

Thursday, September 19, 2013

  Actual Average (KP60) Record (KP60)
Temperature  
Mean Temperature 42 °F 46 °F  
Max Temperature 53 °F 61 °F 72 °F (2010)
Min Temperature 32 °F 30 °F 22 °F (2003)
Degree Days  
Heating Degree Days 22 19  
Month to date heating degree days 308  
Since 1 July heating degree days 895  
Cooling Degree Days 0 0  
Month to date cooling degree days 0  
Year to date cooling degree days 0  
Moisture  
Dew Point 35 °F    
Average Humidity 85    
Maximum Humidity 88    
Minimum Humidity 80    
Precipitation  
Precipitation 0.00 in 0.04 in 0.56 in (2004)
Month to date precipitation 0.92  
Year to date precipitation 14.99  
Sea Level Pressure  
Sea Level Pressure 30.23 in    
Wind  
Wind Speed 2 mph (SSW)    
Max Wind Speed 8 mph    
Max Gust Speed -    
Visibility 10 miles    
Events      
T = Trace of Precipitation, MM = Missing Value Source: NWS Daily Summary

Daily Weather History Graph

Daily Weather History Graph

Search for Another Location

Airport or City:

Trip Planner

Search our weather history database for the weather conditions in past years. The results will help you decide how hot, cold, wet, or windy it might be!

Date:

Astronomy

Sep. 19, 2013 Rise Set
Actual Time 7:08 AM MDT 7:27 PM MDT
Civil Twilight 6:39 AM MDT 7:56 PM MDT
Nautical Twilight 6:04 AM MDT 8:30 PM MDT
Astronomical Twilight 5:29 AM MDT 9:05 PM MDT
Moon 7:23 PM MDT (9/19) 7:23 AM MDT (9/19)
Length of Visible Light 13h 16m
Length of Day
12h 18m
Full, 100% of the Moon is Illuminated
Sep 19
Full
Sep 26
Last Quarter
Oct 4
New
Oct 11
First Quarter
Oct 18
Full

Hourly Weather History & Observations

Time (MDT) Temp. Windchill Dew Point Humidity Pressure Visibility Wind Dir Wind Speed Gust Speed Precip Events Conditions
12:10 AM 35.6 °F 32.8 °F 32.0 °F 87% 30.17 in 10.0 mi SE 3.5 mph - N/A   Overcast
12:30 AM 33.8 °F - 30.2 °F 87% 30.17 in 10.0 mi Calm Calm - N/A   Overcast
12:50 AM 32.0 °F 26.4 °F 28.4 °F 87% 30.16 in 10.0 mi SSW 5.8 mph - N/A   Partly Cloudy
1:10 AM 32.0 °F 27.5 °F 28.4 °F 87% 30.17 in 10.0 mi SSW 4.6 mph - N/A   Clear
1:30 AM 32.0 °F 27.5 °F 28.4 °F 87% 30.18 in 10.0 mi ENE 4.6 mph - N/A   Clear
1:50 AM 32.0 °F - 28.4 °F 87% 30.18 in 10.0 mi Calm Calm - N/A   Scattered Clouds
2:10 AM 32.0 °F - 28.4 °F 87% 30.19 in 10.0 mi Calm Calm - N/A   Overcast
2:30 AM 33.8 °F 29.6 °F 30.2 °F 87% 30.19 in 10.0 mi SSW 4.6 mph - N/A   Overcast
2:50 AM 32.0 °F - 28.4 °F 87% 30.19 in 10.0 mi Calm Calm - N/A   Mostly Cloudy
3:10 AM 32.0 °F - 26.6 °F 80% 30.20 in 10.0 mi Calm Calm - N/A   Mostly Cloudy
3:30 AM 32.0 °F - 26.6 °F 80% 30.20 in 10.0 mi Calm Calm - N/A   Scattered Clouds
3:50 AM 32.0 °F - 28.4 °F 87% 30.21 in 10.0 mi Calm Calm - N/A   Mostly Cloudy
4:10 AM 32.0 °F - 28.4 °F 87% 30.21 in 10.0 mi Calm Calm - N/A   Mostly Cloudy
4:30 AM 32.0 °F 28.7 °F 28.4 °F 87% 30.21 in 10.0 mi South 3.5 mph - N/A   Overcast
4:50 AM 32.0 °F 28.7 °F 28.4 °F 87% 30.21 in 10.0 mi SSE 3.5 mph - N/A   Mostly Cloudy
5:10 AM 32.0 °F - 26.6 °F 80% 30.21 in 10.0 mi Calm Calm - N/A   Mostly Cloudy
5:30 AM 32.0 °F - 28.4 °F 87% 30.21 in 10.0 mi Calm Calm - N/A   Overcast
5:50 AM 32.0 °F - 28.4 °F 87% 30.21 in 10.0 mi Calm Calm - N/A   Overcast
6:10 AM 32.0 °F - 28.4 °F 87% 30.21 in 10.0 mi Calm Calm - N/A   Overcast
6:30 AM 32.0 °F 28.7 °F 26.6 °F 80% 30.22 in 10.0 mi WNW 3.5 mph - N/A   Overcast
6:50 AM 32.0 °F - 28.4 °F 87% 30.22 in 10.0 mi Calm Calm - N/A   Overcast
7:10 AM 32.0 °F - 28.4 °F 87% 30.24 in 10.0 mi Calm Calm - N/A   Overcast
7:30 AM 32.0 °F - 28.4 °F 87% 30.25 in 10.0 mi Calm Calm - N/A   Overcast
7:50 AM 32.0 °F 28.7 °F 28.4 °F 87% 30.25 in 10.0 mi SSW 3.5 mph - N/A   Overcast
8:10 AM 32.0 °F 28.7 °F 28.4 °F 87% 30.26 in 10.0 mi South 3.5 mph - N/A   Overcast
8:30 AM 33.8 °F - 30.2 °F 87% 30.26 in 10.0 mi Calm Calm - N/A   Overcast
8:50 AM 35.6 °F 32.8 °F 32.0 °F 87% 30.27 in 10.0 mi East 3.5 mph - N/A   Overcast
9:10 AM 35.6 °F - 32.0 °F 87% 30.27 in 10.0 mi Calm Calm - N/A   Overcast
9:30 AM 37.4 °F - 32.0 °F 81% 30.27 in 10.0 mi Calm Calm - N/A   Overcast
9:50 AM 37.4 °F 34.9 °F 32.0 °F 81% 30.27 in 10.0 mi NE 3.5 mph - N/A   Overcast
10:10 AM 39.2 °F - 33.8 °F 81% 30.28 in 10.0 mi Calm Calm - N/A   Overcast
10:30 AM 39.2 °F - 33.8 °F 81% 30.28 in 10.0 mi Calm Calm - N/A   Overcast
10:50 AM 39.2 °F 35.9 °F 35.6 °F 87% 30.28 in 10.0 mi ENE 4.6 mph - N/A   Overcast
11:10 AM 41.0 °F - 35.6 °F 81% 30.28 in 10.0 mi Calm Calm - N/A   Overcast
11:30 AM 41.0 °F - 35.6 °F 81% 30.28 in 10.0 mi Calm Calm - N/A   Overcast
11:50 AM 41.0 °F - 37.4 °F 87% 30.28 in 10.0 mi Calm Calm - N/A   Mostly Cloudy
12:10 PM 42.8 °F 41.1 °F 39.2 °F 87% 30.28 in 10.0 mi NE 3.5 mph - N/A   Partly Cloudy
12:30 PM 46.4 °F 45.2 °F 41.0 °F 81% 30.27 in 10.0 mi WSW 3.5 mph - N/A   Clear
12:50 PM 46.4 °F 44.3 °F 41.0 °F 81% 30.27 in 10.0 mi East 4.6 mph - N/A   Clear
1:10 PM 46.4 °F 45.2 °F 41.0 °F 81% 30.27 in 10.0 mi South 3.5 mph - N/A   Partly Cloudy
1:30 PM 46.4 °F - 41.0 °F 81% 30.26 in 10.0 mi Calm Calm - N/A   Partly Cloudy
1:50 PM 48.2 °F - 44.6 °F 87% 30.25 in 10.0 mi Calm Calm - N/A   Mostly Cloudy
2:10 PM 50.0 °F - 46.4 °F 87% 30.25 in 10.0 mi SW 4.6 mph - N/A   Mostly Cloudy
2:30 PM 50.0 °F - 46.4 °F 87% 30.24 in 10.0 mi NNW 4.6 mph - N/A   Overcast
2:50 PM 50.0 °F - 44.6 °F 82% 30.24 in 10.0 mi North 3.5 mph - N/A   Overcast
3:10 PM 53.6 °F - 48.2 °F 82% 30.24 in 10.0 mi South 8.1 mph - N/A   Overcast
3:30 PM 50.0 °F - 46.4 °F 87% 30.24 in 10.0 mi NW 5.8 mph - N/A   Mostly Cloudy
3:50 PM 51.8 °F - 46.4 °F 82% 30.24 in 10.0 mi Calm Calm - N/A   Mostly Cloudy
4:10 PM 51.8 °F - 48.2 °F 88% 30.23 in 10.0 mi SSE 4.6 mph - N/A   Partly Cloudy
4:30 PM 53.6 °F - 48.2 °F 82% 30.23 in 10.0 mi SSW 5.8 mph - N/A   Mostly Cloudy
4:50 PM 51.8 °F - 46.4 °F 82% 30.23 in 10.0 mi SW 3.5 mph - N/A   Mostly Cloudy
5:10 PM 53.6 °F - 48.2 °F 82% 30.22 in 10.0 mi South 6.9 mph - N/A   Mostly Cloudy
5:30 PM 53.6 °F - 48.2 °F 82% 30.22 in 10.0 mi SSW 8.1 mph - N/A   Mostly Cloudy
5:50 PM 53.6 °F - 48.2 °F 82% 30.22 in 10.0 mi SW 8.1 mph - N/A   Partly Cloudy
6:10 PM 53.6 °F - 48.2 °F 82% 30.22 in 10.0 mi SW 6.9 mph - N/A   Clear
6:30 PM 51.8 °F - 48.2 °F 88% 30.22 in 10.0 mi SSW 5.8 mph - N/A   Clear
6:50 PM 51.8 °F - 46.4 °F 82% 30.22 in 10.0 mi SSW 8.1 mph - N/A   Clear
7:10 PM 50.0 °F - 44.6 °F 82% 30.22 in 10.0 mi SSW 5.8 mph - N/A   Clear
7:30 PM 46.4 °F 45.2 °F 41.0 °F 81% 30.22 in 10.0 mi SSW 3.5 mph - N/A   Clear
7:50 PM 42.8 °F 41.1 °F 39.2 °F 87% 30.22 in 10.0 mi South 3.5 mph - N/A   Clear
8:10 PM 41.0 °F 39.0 °F 37.4 °F 87% 30.22 in 10.0 mi South 3.5 mph - N/A   Clear
8:30 PM 39.2 °F 37.0 °F 35.6 °F 87% 30.23 in 10.0 mi South 3.5 mph - N/A   Clear
8:50 PM 39.2 °F 37.0 °F 35.6 °F 87% 30.23 in 10.0 mi South 3.5 mph - N/A   Clear
9:10 PM 35.6 °F - 32.0 °F 87% 30.24 in 10.0 mi Calm Calm - N/A   Clear
9:30 PM 35.6 °F - 32.0 °F 87% 30.24 in 10.0 mi Calm Calm - N/A   Clear
9:50 PM 35.6 °F - 32.0 °F 87% 30.24 in 10.0 mi Calm Calm - N/A   Clear
10:10 PM 35.6 °F - 32.0 °F 87% 30.24 in 10.0 mi Calm Calm - N/A   Clear
10:30 PM 35.6 °F - 32.0 °F 87% 30.24 in 10.0 mi Calm Calm - N/A   Clear
10:50 PM 32.0 °F - 28.4 °F 87% 30.25 in 10.0 mi Calm Calm - N/A   Clear
11:10 PM 32.0 °F 27.5 °F 28.4 °F 87% 30.25 in 10.0 mi South 4.6 mph - N/A   Clear
11:30 PM 32.0 °F 28.7 °F 28.4 °F 87% 30.25 in 10.0 mi WNW 3.5 mph - N/A   Clear
11:50 PM 32.0 °F - 26.6 °F 80% 30.25 in 10.0 mi Calm Calm - N/A   Clear